Location: ???? ?????????
(31.1304°N, 31.7111°E)
Time: 11:09:22
(UTC+00:00)

Transit 2A Rocket - All Passes

Search period start: 01 March 2021 00:00
Search period end: 11 March 2021 00:00
Orbit: 594 x 909 km, 66.7° (Epoch: 28 February)

Date Brightness Start Highest point End Pass type
(mag) Time Alt. Az. Time Alt. Az. Time Alt. Az.
01 Mar - 00:45:25 10° SSW 00:50:44 87° ESE 00:55:34 10° NNE visible
01 Mar - 09:35:22 10° NNE 09:38:08 16° NE 09:40:56 10° E daylight
01 Mar - 11:16:43 10° NW 11:20:40 35° WSW 11:24:49 10° S daylight
02 Mar - 00:03:10 10° S 00:08:12 44° ESE 00:12:48 10° NE night (unlit)
02 Mar - 01:47:25 10° W 01:50:48 18° WNW 01:54:03 10° NNW visible
02 Mar - 10:33:51 10° NNW 10:38:11 77° WSW 10:42:42 10° SSE daylight
02 Mar - 23:21:37 10° SSE 23:25:42 23° ESE 23:29:32 10° ENE night (unlit)
03 Mar - 01:03:27 10° SW 01:08:04 32° WNW 01:12:21 10° N visible
03 Mar - 09:51:23 10° NNW 09:55:36 50° ENE 09:59:59 10° SE daylight
03 Mar - 11:36:51 10° W 11:37:40 10° WSW 11:38:29 10° WSW daylight
03 Mar - 22:41:38 10° SE 22:43:17 11° ESE 22:44:53 10° E night (unlit)
04 Mar - 00:20:15 10° SW 00:25:26 62° WNW 00:30:10 10° NNE night (unlit)
04 Mar - 09:09:19 10° N 09:12:56 25° ENE 09:16:37 10° ESE daylight
04 Mar - 10:51:52 10° WNW 10:55:16 22° WSW 10:58:48 10° SSW daylight
04 Mar - 23:37:37 10° SSW 23:42:51 69° ESE 23:47:37 10° NNE night (unlit)
05 Mar - 01:23:54 10° WNW 01:25:40 12° NW 01:27:24 10° NNW night (unlit)
05 Mar - 08:28:04 10° NNE 08:30:08 13° NE 08:32:13 10° E daylight
05 Mar - 10:08:38 10° NW 10:12:48 46° WSW 10:17:11 10° S daylight
05 Mar - 22:55:36 10° S 23:00:19 34° ESE 23:04:42 10° NE night (unlit)
06 Mar - 00:38:58 10° WSW 00:42:50 22° WNW 00:46:30 10° N night (unlit)
06 Mar - 09:25:55 10° NNW 09:30:16 82° ENE 09:34:51 10° SSE daylight
06 Mar - 22:14:24 10° SSE 22:17:52 18° ESE 22:21:08 10° ENE night (unlit)
06 Mar - 23:55:18 10° SW 00:00:08 40° WNW 00:04:36 10° N night (unlit)
07 Mar - 08:43:35 10° N 08:47:40 39° ENE 08:51:55 10° SE daylight
07 Mar - 10:27:31 10° WNW 10:29:51 14° WSW 10:32:12 10° SW daylight
07 Mar - 23:12:19 10° SSW 23:17:32 78° WNW 23:22:18 10° NNE night (unlit)
08 Mar - 08:01:44 10° N 08:04:57 20° ENE 08:08:16 10° ESE daylight
08 Mar - 09:43:37 10° NW 09:47:24 29° WSW 09:51:22 10° S daylight
08 Mar - 22:29:54 10° S 22:34:58 53° ESE 22:39:38 10° NE night (unlit)
09 Mar - 00:14:58 10° W 00:17:40 14° NW 00:20:17 10° NNW night (unlit)
09 Mar - 07:21:28 10° NE 07:22:06 10° NE 07:22:46 10° ENE daylight
09 Mar - 09:00:36 10° NNW 09:04:55 61° WSW 09:09:27 10° SSE daylight
09 Mar - 21:48:07 10° SSE 21:52:28 27° ESE 21:56:31 10° NE night (unlit)
09 Mar - 23:30:38 10° WSW 23:34:53 26° WNW 23:38:52 10° N night (unlit)
10 Mar - 08:18:02 10° NNW 08:22:21 63° ENE 08:26:54 10° SE daylight
10 Mar - 21:07:27 10° SE 21:10:01 14° ESE 21:12:29 10° ENE night (unlit)
10 Mar - 22:47:14 10° SW 22:52:13 50° WNW 22:56:48 10° NNE night (unlit)
